Time,TemperatureF,DewpointF,PressureIn,WindDirection,WindDirectionDegrees,WindSpeedMPH,WindSpeedGustMPH,Humidity,HourlyPrecipIn,Conditions,Clouds,dailyrainin,SoftwareType,DateUTC
2013-05-13 00:03:00,40.0,28.0,-100.00,West,280,2.0,4.0,61,-99.99,,,-99.99,,2013-05-13 04:03:00,
2013-05-13 00:12:00,40.0,28.0,-100.00,West,260,2.0,4.0,63,-99.99,,,-99.99,,2013-05-13 04:12:00,
2013-05-13 00:23:00,40.0,28.0,-100.00,West,265,2.0,4.0,64,-99.99,,,-99.99,,2013-05-13 04:23:00,
2013-05-13 00:33:00,39.0,28.0,-100.00,West,270,2.0,4.0,65,-99.99,,,-99.99,,2013-05-13 04:33:00,
2013-05-13 00:42:00,39.0,29.0,-100.00,West,275,2.0,4.0,66,-99.99,,,-99.99,,2013-05-13 04:42:00,
2013-05-13 00:52:00,39.0,29.0,-100.00,West,270,2.0,4.0,67,-99.99,,,-99.99,,2013-05-13 04:52:00,
2013-05-13 01:02:00,38.0,29.0,-100.00,West,265,2.0,4.0,68,-99.99,,,-99.99,,2013-05-13 05:02:00,
2013-05-13 01:12:00,38.0,29.0,-100.00,WSW,240,3.0,5.0,69,-99.99,,,-99.99,,2013-05-13 05:12:00,
2013-05-13 01:21:00,38.0,29.0,-100.00,WSW,255,2.0,5.0,69,-99.99,,,-99.99,,2013-05-13 05:21:00,
2013-05-13 01:32:00,38.0,29.0,-100.00,WSW,255,2.0,4.0,70,-99.99,,,-99.99,,2013-05-13 05:32:00,
2013-05-13 01:42:00,38.0,29.0,-100.00,West,265,2.0,4.0,71,-99.99,,,-99.99,,2013-05-13 05:42:00,
2013-05-13 01:52:00,38.0,29.0,-100.00,West,265,2.0,4.0,71,-99.99,,,-99.99,,2013-05-13 05:52:00,
2013-05-13 02:01:00,37.0,30.0,-100.00,WSW,245,1.0,3.0,74,-99.99,,,-99.99,,2013-05-13 06:01:00,
2013-05-13 02:11:00,37.0,30.0,-100.00,WSW,255,3.0,4.0,75,-99.99,,,-99.99,,2013-05-13 06:11:00,
2013-05-13 02:21:00,37.0,31.0,-100.00,WNW,290,1.0,5.0,77,-99.99,,,-99.99,,2013-05-13 06:21:00,
2013-05-13 02:32:00,37.0,31.0,-100.00,WNW,290,2.0,4.0,77,-99.99,,,-99.99,,2013-05-13 06:32:00,
2013-05-13 02:42:00,37.0,31.0,-100.00,West,280,2.0,4.0,79,-99.99,,,-99.99,,2013-05-13 06:42:00,
2013-05-13 02:52:00,37.0,31.0,-100.00,West,270,2.0,4.0,79,-99.99,,,-99.99,,2013-05-13 06:52:00,
2013-05-13 03:01:00,36.0,31.0,-100.00,West,270,3.0,4.0,80,-99.99,,,-99.99,,2013-05-13 07:01:00,
2013-05-13 03:11:00,36.0,31.0,-100.00,WSW,255,2.0,4.0,80,-99.99,,,-99.99,,2013-05-13 07:11:00,
2013-05-13 03:22:00,36.0,31.0,-100.00,West,280,2.0,4.0,81,-99.99,,,-99.99,,2013-05-13 07:22:00,
2013-05-13 03:32:00,36.0,31.0,-100.00,West,275,4.0,6.0,82,-99.99,,,-99.99,,2013-05-13 07:32:00,
2013-05-13 03:42:00,36.0,31.0,-100.00,West,270,4.0,7.0,82,-99.99,,,-99.99,,2013-05-13 07:42:00,
2013-05-13 03:52:00,36.0,31.0,-100.00,WNW,290,4.0,6.0,82,-99.99,,,-99.99,,2013-05-13 07:52:00,
2013-05-13 04:02:00,36.0,31.0,-100.00,NW,315,3.0,6.0,82,-99.99,,,-99.99,,2013-05-13 08:02:00,
2013-05-13 04:11:00,36.0,31.0,-100.00,WNW,300,2.0,4.0,83,-99.99,,,-99.99,,2013-05-13 08:11:00,
2013-05-13 04:21:00,35.0,31.0,-100.00,WNW,295,2.0,2.0,83,-99.99,,,-99.99,,2013-05-13 08:21:00,
2013-05-13 04:32:00,35.0,31.0,-100.00,WNW,295,1.0,3.0,84,-99.99,,,-99.99,,2013-05-13 08:32:00,
2013-05-13 04:42:00,35.0,31.0,-100.00,NW,315,1.0,4.0,84,-99.99,,,-99.99,,2013-05-13 08:42:00,
2013-05-13 04:51:00,36.0,31.0,-100.00,NNW,345,2.0,4.0,85,-99.99,,,-99.99,,2013-05-13 08:51:00,
2013-05-13 05:01:00,36.0,32.0,-100.00,NW,320,2.0,6.0,85,-99.99,,,-99.99,,2013-05-13 09:01:00,
2013-05-13 05:11:00,36.0,32.0,-100.00,WNW,290,3.0,6.0,85,-99.99,,,-99.99,,2013-05-13 09:11:00,
2013-05-13 05:21:00,35.0,31.0,-100.00,WNW,295,2.0,4.0,85,-99.99,,,-99.99,,2013-05-13 09:21:00,
2013-05-13 05:33:00,35.0,31.0,-100.00,NNW,345,1.0,2.0,85,-99.99,,,-99.99,,2013-05-13 09:33:00,
2013-05-13 05:42:00,35.0,31.0,-100.00,NNW,335,4.0,5.0,85,-99.99,,,-99.99,,2013-05-13 09:42:00,
2013-05-13 05:52:00,35.0,31.0,-100.00,North,350,3.0,4.0,86,-99.99,,,-99.99,,2013-05-13 09:52:00,
2013-05-13 06:03:00,35.0,31.0,-100.00,NNW,330,4.0,6.0,86,-99.99,,,-99.99,,2013-05-13 10:03:00,
2013-05-13 06:12:00,34.0,31.0,-100.00,North,350,3.0,5.0,86,-99.99,,,-99.99,,2013-05-13 10:12:00,
2013-05-13 06:22:00,34.0,31.0,-100.00,NNW,330,2.0,4.0,87,-99.99,,,-99.99,,2013-05-13 10:22:00,
2013-05-13 06:33:00,34.0,31.0,-100.00,NNW,330,2.0,4.0,87,-99.99,,,-99.99,,2013-05-13 10:33:00,
2013-05-13 06:42:00,34.0,31.0,-100.00,WNW,300,2.0,4.0,88,-99.99,,,-99.99,,2013-05-13 10:42:00,
2013-05-13 06:52:00,34.0,31.0,-100.00,NW,320,3.0,4.0,88,-99.99,,,-99.99,,2013-05-13 10:52:00,
2013-05-13 07:02:00,34.0,31.0,-100.00,NNW,335,2.0,5.0,88,-99.99,,,-99.99,,2013-05-13 11:02:00,
2013-05-13 07:12:00,35.0,32.0,-100.00,NW,325,2.0,4.0,89,-99.99,,,-99.99,,2013-05-13 11:12:00,
2013-05-13 07:21:00,35.0,32.0,-100.00,NW,325,2.0,4.0,89,-99.99,,,-99.99,,2013-05-13 11:21:00,
2013-05-13 07:32:00,35.0,33.0,-100.00,NW,325,3.0,6.0,89,-99.99,,,-99.99,,2013-05-13 11:32:00,
2013-05-13 07:42:00,36.0,33.0,-100.00,NW,305,2.0,6.0,89,-99.99,,,-99.99,,2013-05-13 11:42:00,
2013-05-13 07:52:00,37.0,34.0,-100.00,NNW,335,4.0,6.0,88,-99.99,,,-99.99,,2013-05-13 11:52:00,
2013-05-13 08:02:00,37.0,34.0,-100.00,NNW,345,3.0,6.0,88,-99.99,,,-99.99,,2013-05-13 12:02:00,
2013-05-13 08:11:00,37.0,33.0,-100.00,NW,325,4.0,7.0,85,-99.99,,,-99.99,,2013-05-13 12:11:00,
2013-05-13 08:21:00,38.0,33.0,-100.00,North,355,4.0,7.0,83,-99.99,,,-99.99,,2013-05-13 12:21:00,
2013-05-13 08:32:00,39.0,32.0,-100.00,North,5,4.0,9.0,77,-99.99,,,-99.99,,2013-05-13 12:32:00,
2013-05-13 08:42:00,39.0,30.0,-100.00,North,0,6.0,9.0,70,-99.99,,,-99.99,,2013-05-13 12:42:00,
2013-05-13 08:51:00,40.0,29.0,-100.00,North,0,6.0,11.0,65,-99.99,,,-99.99,,2013-05-13 12:51:00,
2013-05-13 09:01:00,41.0,29.0,-100.00,NNW,330,9.0,12.0,61,-99.99,,,-99.99,,2013-05-13 13:01:00,
2013-05-13 09:11:00,41.0,28.0,-100.00,NW,325,7.0,12.0,59,-99.99,,,-99.99,,2013-05-13 13:11:00,
2013-05-13 09:21:00,41.0,28.0,-100.00,NW,325,7.0,12.0,59,-99.99,,,-99.99,,2013-05-13 13:21:00,
2013-05-13 09:32:00,42.0,28.0,-100.00,WNW,300,5.0,10.0,56,-99.99,,,-99.99,,2013-05-13 13:32:00,
2013-05-13 09:42:00,43.0,28.0,-100.00,North,0,6.0,11.0,55,-99.99,,,-99.99,,2013-05-13 13:42:00,
2013-05-13 09:52:00,43.0,28.0,-100.00,NW,315,7.0,11.0,53,-99.99,,,-99.99,,2013-05-13 13:52:00,
2013-05-13 10:02:00,44.0,26.0,-100.00,North,10,6.0,14.0,50,-99.99,,,-99.99,,2013-05-13 14:02:00,
2013-05-13 10:11:00,44.0,26.0,-100.00,NNW,340,7.0,13.0,48,-99.99,,,-99.99,,2013-05-13 14:11:00,
2013-05-13 10:22:00,44.0,25.0,-100.00,WNW,295,7.0,14.0,47,-99.99,,,-99.99,,2013-05-13 14:22:00,
2013-05-13 10:32:00,45.0,26.0,-100.00,North,5,4.0,12.0,46,-99.99,,,-99.99,,2013-05-13 14:32:00,
2013-05-13 10:41:00,45.0,25.0,-100.00,NW,310,4.0,14.0,45,-99.99,,,-99.99,,2013-05-13 14:41:00,
2013-05-13 10:51:00,46.0,26.0,-100.00,North,0,9.0,12.0,45,-99.99,,,-99.99,,2013-05-13 14:51:00,
2013-05-13 11:01:00,46.0,25.0,-100.00,NW,325,6.0,12.0,43,-99.99,,,-99.99,,2013-05-13 15:01:00,
2013-05-13 11:11:00,46.0,25.0,-100.00,North,0,7.0,12.0,42,-99.99,,,-99.99,,2013-05-13 15:11:00,
2013-05-13 11:21:00,47.0,25.0,-100.00,North,0,7.0,12.0,42,-99.99,,,-99.99,,2013-05-13 15:21:00,
2013-05-13 11:32:00,47.0,26.0,-100.00,North,0,8.0,13.0,42,-99.99,,,-99.99,,2013-05-13 15:32:00,
2013-05-13 11:42:00,48.0,26.0,-100.00,North,0,8.0,13.0,41,-99.99,,,-99.99,,2013-05-13 15:42:00,
2013-05-13 11:53:00,49.0,25.0,-100.00,North,350,7.0,16.0,39,-99.99,,,-99.99,,2013-05-13 15:53:00,
2013-05-13 12:03:00,49.0,24.0,-100.00,North,0,6.0,18.0,38,-99.99,,,-99.99,,2013-05-13 16:03:00,
2013-05-13 12:12:00,49.0,24.0,-100.00,West,270,6.0,17.0,37,-99.99,,,-99.99,,2013-05-13 16:12:00,
2013-05-13 12:21:00,50.0,25.0,-100.00,North,5,7.0,19.0,37,-99.99,,,-99.99,,2013-05-13 16:21:00,
2013-05-13 12:33:00,50.0,25.0,-100.00,North,5,7.0,19.0,37,-99.99,,,-99.99,,2013-05-13 16:33:00,
2013-05-13 12:42:00,50.0,24.0,-100.00,North,0,6.0,14.0,36,-99.99,,,-99.99,,2013-05-13 16:42:00,
2013-05-13 12:52:00,51.0,24.0,-100.00,NW,320,4.0,17.0,35,-99.99,,,-99.99,,2013-05-13 16:52:00,
2013-05-13 13:02:00,51.0,24.0,-100.00,WNW,290,10.0,14.0,33,-99.99,,,-99.99,,2013-05-13 17:02:00,
2013-05-13 13:12:00,52.0,24.0,-100.00,North,5,9.0,14.0,34,-99.99,,,-99.99,,2013-05-13 17:12:00,
2013-05-13 13:21:00,53.0,25.0,-100.00,NW,320,6.0,12.0,33,-99.99,,,-99.99,,2013-05-13 17:21:00,
2013-05-13 13:32:00,52.0,24.0,-100.00,NW,305,7.0,13.0,32,-99.99,,,-99.99,,2013-05-13 17:32:00,
2013-05-13 13:42:00,53.0,24.0,-100.00,NW,325,11.0,15.0,32,-99.99,,,-99.99,,2013-05-13 17:42:00,
2013-05-13 13:54:00,53.0,24.0,-100.00,NW,325,9.0,18.0,32,-99.99,,,-99.99,,2013-05-13 17:54:00,
2013-05-13 14:03:00,53.0,24.0,-100.00,WNW,290,9.0,17.0,31,-99.99,,,-99.99,,2013-05-13 18:03:00,
2013-05-13 14:13:00,52.0,23.0,-100.00,North,10,8.0,14.0,31,-99.99,,,-99.99,,2013-05-13 18:13:00,
2013-05-13 14:23:00,54.0,25.0,-100.00,NNW,340,7.0,11.0,31,-99.99,,,-99.99,,2013-05-13 18:23:00,
2013-05-13 14:32:00,54.0,24.0,-100.00,WSW,250,6.0,12.0,30,-99.99,,,-99.99,,2013-05-13 18:32:00,
2013-05-13 14:42:00,55.0,24.0,-100.00,WNW,295,6.0,14.0,30,-99.99,,,-99.99,,2013-05-13 18:42:00,
2013-05-13 14:51:00,55.0,24.0,-100.00,NNW,335,9.0,16.0,29,-99.99,,,-99.99,,2013-05-13 18:51:00,
2013-05-13 15:01:00,54.0,24.0,-100.00,NNW,340,11.0,17.0,30,-99.99,,,-99.99,,2013-05-13 19:01:00,
2013-05-13 15:11:00,54.0,24.0,-100.00,WSW,255,6.0,15.0,30,-99.99,,,-99.99,,2013-05-13 19:11:00,
2013-05-13 15:21:00,55.0,24.0,-100.00,West,270,5.0,14.0,29,-99.99,,,-99.99,,2013-05-13 19:21:00,
2013-05-13 15:32:00,55.0,24.0,-100.00,West,270,5.0,14.0,29,-99.99,,,-99.99,,2013-05-13 19:32:00,
2013-05-13 15:44:00,56.0,23.0,-100.00,NNW,340,6.0,17.0,28,-99.99,,,-99.99,,2013-05-13 19:44:00,
2013-05-13 15:53:00,55.0,23.0,-100.00,North,350,6.0,14.0,27,-99.99,,,-99.99,,2013-05-13 19:53:00,
2013-05-13 16:02:00,55.0,23.0,-100.00,North,0,9.0,16.0,28,-99.99,,,-99.99,,2013-05-13 20:02:00,
2013-05-13 16:11:00,56.0,23.0,-100.00,NW,315,8.0,14.0,28,-99.99,,,-99.99,,2013-05-13 20:11:00,
2013-05-13 16:23:00,55.0,23.0,-100.00,West,275,4.0,12.0,27,-99.99,,,-99.99,,2013-05-13 20:23:00,
2013-05-13 16:34:00,56.0,24.0,-100.00,WNW,300,7.0,14.0,27,-99.99,,,-99.99,,2013-05-13 20:34:00,
2013-05-13 16:44:00,57.0,24.0,-100.00,NNW,335,9.0,17.0,27,-99.99,,,-99.99,,2013-05-13 20:44:00,
2013-05-13 16:53:00,57.0,24.0,-100.00,NNW,330,7.0,9.0,27,-99.99,,,-99.99,,2013-05-13 20:53:00,
2013-05-13 17:03:00,56.0,23.0,-100.00,NNW,340,9.0,15.0,27,-99.99,,,-99.99,,2013-05-13 21:03:00,
2013-05-13 17:14:00,56.0,23.0,-100.00,NNW,330,7.0,14.0,27,-99.99,,,-99.99,,2013-05-13 21:14:00,
2013-05-13 17:23:00,57.0,24.0,-100.00,NNW,340,5.0,14.0,27,-99.99,,,-99.99,,2013-05-13 21:23:00,
2013-05-13 17:33:00,58.0,24.0,-100.00,WNW,285,4.0,11.0,27,-99.99,,,-99.99,,2013-05-13 21:33:00,
2013-05-13 17:43:00,57.0,23.0,-100.00,North,0,9.0,14.0,26,-99.99,,,-99.99,,2013-05-13 21:43:00,
2013-05-13 17:53:00,57.0,24.0,-100.00,NNW,335,9.0,16.0,27,-99.99,,,-99.99,,2013-05-13 21:53:00,
2013-05-13 18:02:00,58.0,24.0,-100.00,North,350,4.0,11.0,27,-99.99,,,-99.99,,2013-05-13 22:02:00,
2013-05-13 18:12:00,57.0,23.0,-100.00,WNW,285,4.0,8.0,26,-99.99,,,-99.99,,2013-05-13 22:12:00,
2013-05-13 18:23:00,59.0,24.0,-100.00,ENE,65,2.0,6.0,26,-99.99,,,-99.99,,2013-05-13 22:23:00,
2013-05-13 18:32:00,58.0,24.0,-100.00,North,5,6.0,8.0,26,-99.99,,,-99.99,,2013-05-13 22:32:00,
2013-05-13 18:43:00,58.0,24.0,-100.00,WNW,295,4.0,12.0,27,-99.99,,,-99.99,,2013-05-13 22:43:00,
2013-05-13 18:52:00,58.0,24.0,-100.00,North,350,4.0,6.0,26,-99.99,,,-99.99,,2013-05-13 22:52:00,
2013-05-13 19:02:00,57.0,24.0,-100.00,NW,325,6.0,11.0,27,-99.99,,,-99.99,,2013-05-13 23:02:00,
2013-05-13 19:12:00,58.0,24.0,-100.00,WNW,300,6.0,11.0,27,-99.99,,,-99.99,,2013-05-13 23:12:00,
2013-05-13 19:23:00,57.0,24.0,-100.00,West,265,7.0,12.0,27,-99.99,,,-99.99,,2013-05-13 23:23:00,
2013-05-13 19:34:00,58.0,24.0,-100.00,West,275,4.0,9.0,27,-99.99,,,-99.99,,2013-05-13 23:34:00,
2013-05-13 19:42:00,57.0,23.0,-100.00,West,275,7.0,11.0,26,-99.99,,,-99.99,,2013-05-13 23:42:00,
2013-05-13 19:53:00,57.0,23.0,-100.00,WNW,285,6.0,12.0,26,-99.99,,,-99.99,,2013-05-13 23:53:00,
2013-05-13 20:02:00,58.0,24.0,-100.00,NW,325,2.0,6.0,26,-99.99,,,-99.99,,2013-05-14 00:02:00,
2013-05-13 20:12:00,57.0,23.0,-100.00,NW,325,6.0,9.0,26,-99.99,,,-99.99,,2013-05-14 00:12:00,
2013-05-13 20:22:00,56.0,23.0,-100.00,North,0,2.0,8.0,27,-99.99,,,-99.99,,2013-05-14 00:22:00,
2013-05-13 20:32:00,56.0,24.0,-100.00,North,350,2.0,4.0,27,-99.99,,,-99.99,,2013-05-14 00:32:00,
2013-05-13 20:41:00,55.0,23.0,-100.00,NNW,340,3.0,5.0,28,-99.99,,,-99.99,,2013-05-14 00:41:00,
2013-05-13 20:51:00,55.0,23.0,-100.00,NE,40,0.0,5.0,29,-99.99,,,-99.99,,2013-05-14 00:51:00,
2013-05-13 21:02:00,54.0,23.0,-100.00,North,0,0.0,2.0,29,-99.99,,,-99.99,,2013-05-14 01:02:00,
2013-05-13 21:11:00,53.0,23.0,-100.00,North,355,1.0,2.0,30,-99.99,,,-99.99,,2013-05-14 01:11:00,
2013-05-13 21:21:00,53.0,23.0,-100.00,NW,310,0.0,2.0,31,-99.99,,,-99.99,,2013-05-14 01:21:00,
2013-05-13 21:32:00,52.0,25.0,-100.00,NNW,345,1.0,3.0,33,-99.99,,,-99.99,,2013-05-14 01:32:00,
2013-05-13 21:43:00,53.0,26.0,-100.00,South,185,2.0,5.0,34,-99.99,,,-99.99,,2013-05-14 01:43:00,
2013-05-13 21:53:00,53.0,26.0,-100.00,SSW,195,1.0,4.0,34,-99.99,,,-99.99,,2013-05-14 01:53:00,
2013-05-13 22:02:00,53.0,26.0,-100.00,South,175,3.0,6.0,35,-99.99,,,-99.99,,2013-05-14 02:02:00,
2013-05-13 22:12:00,51.0,27.0,-100.00,WSW,240,1.0,3.0,38,-99.99,,,-99.99,,2013-05-14 02:12:00,
2013-05-13 22:22:00,50.0,27.0,-100.00,SE,135,4.0,7.0,40,-99.99,,,-99.99,,2013-05-14 02:22:00,
2013-05-13 22:32:00,50.0,28.0,-100.00,SSE,150,5.0,7.0,41,-99.99,,,-99.99,,2013-05-14 02:32:00,
2013-05-13 22:42:00,50.0,28.0,-100.00,SSE,150,4.0,9.0,41,-99.99,,,-99.99,,2013-05-14 02:42:00,
2013-05-13 22:52:00,50.0,28.0,-100.00,SSE,150,5.0,9.0,42,-99.99,,,-99.99,,2013-05-14 02:52:00,
2013-05-13 23:01:00,49.0,28.0,-100.00,SE,135,4.0,7.0,43,-99.99,,,-99.99,,2013-05-14 03:01:00,
2013-05-13 23:11:00,49.0,28.0,-100.00,South,175,4.0,7.0,43,-99.99,,,-99.99,,2013-05-14 03:11:00,
2013-05-13 23:21:00,49.0,28.0,-100.00,SSE,160,4.0,7.0,43,-99.99,,,-99.99,,2013-05-14 03:21:00,
2013-05-13 23:33:00,49.0,29.0,-100.00,South,180,5.0,11.0,44,-99.99,,,-99.99,,2013-05-14 03:33:00,
2013-05-13 23:42:00,49.0,29.0,-100.00,South,185,7.0,9.0,45,-99.99,,,-99.99,,2013-05-14 03:42:00,
2013-05-13 23:52:00,49.0,29.0,-100.00,SSE,165,7.0,10.0,46,-99.99,,,-99.99,,2013-05-14 03:52:00,